Time,TemperatureF,DewpointF,PressureIn,WindDirection,WindDirectionDegrees,WindSpeedMPH,WindSpeedGustMPH,Humidity,HourlyPrecipIn,Conditions,Clouds,dailyrainin,SolarRadiationWatts/m^2,SoftwareType,DateUTC
2013-02-17 00:04:00,42.3,31.8,30.18,South,184,3.0,6.0,66,0.00,,---,0.00,0.00,VWS V14.00,2013-02-17 06:04:00,
2013-02-17 00:13:00,42.3,32.1,30.18,South,169,4.0,5.0,67,0.00,,---,0.00,0.00,VWS V14.00,2013-02-17 06:13:00,
2013-02-17 00:21:00,42.2,32.0,30.17,South,187,4.0,6.0,67,0.00,,---,0.00,0.00,VWS V14.00,2013-02-17 06:21:00,
2013-02-17 00:29:00,42.5,32.0,30.17,South,173,3.0,6.0,66,0.00,,---,0.00,0.00,VWS V14.00,2013-02-17 06:29:00,
2013-02-17 00:34:00,42.5,31.6,30.17,South,190,5.0,6.0,65,0.00,,---,0.00,0.00,VWS V14.00,2013-02-17 06:34:00,
2013-02-17 00:41:00,42.1,32.0,30.17,South,173,3.0,5.0,67,0.00,,---,0.00,0.00,VWS V14.00,2013-02-17 06:41:00,
2013-02-17 00:49:00,42.6,31.7,30.17,South,179,4.0,5.0,65,0.00,,---,0.00,0.00,VWS V14.00,2013-02-17 06:49:00,
2013-02-17 00:57:00,42.5,32.0,30.17,South,178,4.0,5.0,66,0.00,,---,0.00,0.00,VWS V14.00,2013-02-17 06:57:00,
2013-02-17 01:04:00,42.5,31.6,30.16,South,182,2.0,5.0,65,0.00,,---,0.00,0.00,VWS V14.00,2013-02-17 07:04:00,
2013-02-17 01:09:00,42.3,32.1,30.16,South,182,4.0,5.0,67,0.00,,---,0.00,0.00,VWS V14.00,2013-02-17 07:09:00,
2013-02-17 01:17:00,42.3,32.1,30.16,South,175,3.0,5.0,67,0.00,,---,0.00,0.00,VWS V14.00,2013-02-17 07:17:00,
2013-02-17 01:25:00,42.2,31.7,30.17,South,175,4.0,5.0,66,0.00,,---,0.00,0.00,VWS V14.00,2013-02-17 07:25:00,
2013-02-17 01:33:00,41.8,31.3,30.17,South,185,4.0,5.0,66,0.00,,---,0.00,0.00,VWS V14.00,2013-02-17 07:33:00,
2013-02-17 01:41:00,41.6,31.5,30.17,South,178,2.0,4.0,67,0.00,,---,0.00,0.00,VWS V14.00,2013-02-17 07:41:00,
2013-02-17 01:50:00,41.2,31.8,30.17,South,178,3.0,4.0,69,0.00,,---,0.00,0.00,VWS V14.00,2013-02-17 07:50:00,
2013-02-17 01:58:00,41.0,32.0,30.17,South,184,2.0,4.0,70,0.00,,---,0.00,0.00,VWS V14.00,2013-02-17 07:58:00,
2013-02-17 02:04:00,40.8,31.8,30.16,South,184,2.0,4.0,70,0.00,,---,0.00,0.00,VWS V14.00,2013-02-17 08:04:00,
2013-02-17 02:10:00,40.6,31.6,30.16,South,184,4.0,4.0,70,0.00,,---,0.00,0.00,VWS V14.00,2013-02-17 08:10:00,
2013-02-17 02:18:00,40.8,31.4,30.16,South,184,1.0,4.0,69,0.00,,---,0.00,0.00,VWS V14.00,2013-02-17 08:18:00,
2013-02-17 02:26:00,40.7,31.0,30.15,South,184,3.0,4.0,68,0.00,,---,0.00,0.00,VWS V14.00,2013-02-17 08:26:00,
2013-02-17 02:34:00,40.8,31.1,30.15,South,184,0.0,4.0,68,0.00,,---,0.00,0.00,VWS V14.00,2013-02-17 08:34:00,
2013-02-17 02:42:00,40.9,30.4,30.15,South,184,2.0,2.0,66,0.00,,---,0.00,0.00,VWS V14.00,2013-02-17 08:42:00,
2013-02-17 02:50:00,41.0,30.9,30.14,South,184,2.0,2.0,67,0.00,,---,0.00,0.00,VWS V14.00,2013-02-17 08:50:00,
2013-02-17 02:58:00,40.7,30.6,30.14,South,184,1.0,2.0,67,0.00,,---,0.00,0.00,VWS V14.00,2013-02-17 08:58:00,
2013-02-17 03:04:00,40.6,30.5,30.14,South,184,3.0,3.0,67,0.00,,---,0.00,0.00,VWS V14.00,2013-02-17 09:04:00,
2013-02-17 03:10:00,40.7,32.4,30.14,South,184,0.0,2.0,72,0.00,,---,0.00,0.00,VWS V14.00,2013-02-17 09:10:00,
2013-02-17 03:18:00,40.3,32.3,30.13,South,184,0.0,2.0,73,0.00,,---,0.00,0.00,VWS V14.00,2013-02-17 09:18:00,
2013-02-17 03:26:00,39.5,31.6,30.13,South,184,0.0,2.0,73,0.00,,---,0.00,0.00,VWS V14.00,2013-02-17 09:26:00,
2013-02-17 03:34:00,37.4,31.5,30.12,South,184,0.0,2.0,79,0.00,,---,0.00,0.00,VWS V14.00,2013-02-17 09:34:00,
2013-02-17 03:43:00,37.4,31.2,30.12,South,184,0.0,0.0,78,0.00,,---,0.00,0.00,VWS V14.00,2013-02-17 09:43:00,
2013-02-17 03:51:00,37.4,30.9,30.12,South,184,0.0,0.0,77,0.00,,---,0.00,0.00,VWS V14.00,2013-02-17 09:51:00,
2013-02-17 03:59:00,36.9,30.7,30.12,South,184,0.0,0.0,78,0.00,,---,0.00,0.00,VWS V14.00,2013-02-17 09:59:00,
2013-02-17 04:04:00,37.2,31.0,30.11,South,184,0.0,0.0,78,0.00,,---,0.00,0.00,VWS V14.00,2013-02-17 10:04:00,
2013-02-17 04:11:00,37.6,31.4,30.11,South,184,0.0,0.0,78,0.00,,---,0.00,0.00,VWS V14.00,2013-02-17 10:11:00,
2013-02-17 04:19:00,37.7,31.1,30.11,South,184,0.0,1.0,77,0.00,,---,0.00,0.00,VWS V14.00,2013-02-17 10:19:00,
2013-02-17 04:27:00,38.1,31.5,30.11,South,184,0.0,1.0,77,0.00,,---,0.00,0.00,VWS V14.00,2013-02-17 10:27:00,
2013-02-17 04:34:00,38.5,31.3,30.11,South,184,0.0,2.0,75,0.00,,---,0.00,0.00,VWS V14.00,2013-02-17 10:34:00,
2013-02-17 04:43:00,38.6,31.0,30.11,South,184,0.0,2.0,74,0.00,,---,0.00,0.00,VWS V14.00,2013-02-17 10:43:00,
2013-02-17 04:51:00,38.3,30.8,30.11,South,184,0.0,2.0,74,0.00,,---,0.00,0.00,VWS V14.00,2013-02-17 10:51:00,
2013-02-17 04:59:00,38.6,31.4,30.11,South,184,2.0,4.0,75,0.00,,---,0.00,0.00,VWS V14.00,2013-02-17 10:59:00,
2013-02-17 05:04:00,40.1,31.8,30.10,South,184,4.0,4.0,72,0.00,,---,0.00,0.00,VWS V14.00,2013-02-17 11:04:00,
2013-02-17 05:11:00,40.8,32.1,30.10,South,185,2.0,4.0,71,0.00,,---,0.00,0.00,VWS V14.00,2013-02-17 11:11:00,
2013-02-17 05:19:00,41.4,32.0,30.10,South,175,4.0,7.0,69,0.00,,---,0.00,0.00,VWS V14.00,2013-02-17 11:19:00,
2013-02-17 05:27:00,41.6,32.2,30.10,South,173,3.0,7.0,69,0.00,,---,0.00,0.00,VWS V14.00,2013-02-17 11:27:00,
2013-02-17 05:34:00,41.6,32.2,30.11,South,182,5.0,7.0,69,0.00,,---,0.00,0.00,VWS V14.00,2013-02-17 11:34:00,
2013-02-17 05:39:00,41.4,32.4,30.11,South,186,3.0,5.0,70,0.00,,---,0.00,0.00,VWS V14.00,2013-02-17 11:39:00,
2013-02-17 05:47:00,41.5,32.1,30.11,South,183,3.0,10.0,69,0.00,,---,0.00,0.00,VWS V14.00,2013-02-17 11:47:00,
2013-02-17 05:56:00,41.5,32.1,30.11,South,184,4.0,10.0,69,0.00,,---,0.00,0.00,VWS V14.00,2013-02-17 11:56:00,
2013-02-17 06:04:00,41.6,32.2,30.11,South,175,2.0,10.0,69,0.00,,---,0.00,0.00,VWS V14.00,2013-02-17 12:04:00,
2013-02-17 06:12:00,41.6,31.8,30.11,South,179,5.0,6.0,68,0.00,,---,0.00,0.00,VWS V14.00,2013-02-17 12:12:00,
2013-02-17 06:20:00,41.5,32.1,30.11,South,176,4.0,6.0,69,0.00,,---,0.00,0.00,VWS V14.00,2013-02-17 12:20:00,
2013-02-17 06:28:00,41.5,32.5,30.11,South,185,5.0,6.0,70,0.00,,---,0.00,0.00,VWS V14.00,2013-02-17 12:28:00,
2013-02-17 06:34:00,41.4,32.4,30.11,South,185,7.0,7.0,70,0.00,,---,0.00,0.00,VWS V14.00,2013-02-17 12:34:00,
2013-02-17 06:40:00,41.5,32.5,30.11,South,186,6.0,9.0,70,0.00,,---,0.00,0.00,VWS V14.00,2013-02-17 12:40:00,
2013-02-17 06:48:00,41.6,32.6,30.11,SSW,193,5.0,10.0,70,0.00,,---,0.00,0.00,VWS V14.00,2013-02-17 12:48:00,
2013-02-17 06:56:00,41.7,33.0,30.11,South,175,9.0,10.0,71,0.00,,---,0.00,0.00,VWS V14.00,2013-02-17 12:56:00,
2013-02-17 07:04:00,42.0,32.9,30.11,South,178,7.0,10.0,70,0.00,,---,0.00,0.00,VWS V14.00,2013-02-17 13:04:00,
2013-02-17 07:12:00,42.2,33.5,30.11,SSW,200,6.0,10.0,71,0.00,,---,0.00,11.00,VWS V14.00,2013-02-17 13:12:00,
2013-02-17 07:20:00,42.2,33.5,30.11,SSW,193,8.0,10.0,71,0.00,,---,0.00,25.00,VWS V14.00,2013-02-17 13:20:00,
2013-02-17 07:28:00,42.5,33.4,30.11,SW,221,5.0,10.0,70,0.00,,---,0.00,42.00,VWS V14.00,2013-02-17 13:28:00,
2013-02-17 07:34:00,42.8,33.7,30.11,South,186,5.0,12.0,70,0.00,,---,0.00,60.00,VWS V14.00,2013-02-17 13:34:00,
2013-02-17 07:40:00,43.2,34.1,30.11,South,177,7.0,10.0,70,0.00,,---,0.00,42.00,VWS V14.00,2013-02-17 13:40:00,
2013-02-17 07:48:00,43.6,34.5,30.11,South,180,4.0,12.0,70,0.00,,---,0.00,107.00,VWS V14.00,2013-02-17 13:48:00,
2013-02-17 07:57:00,43.9,34.4,30.11,SSW,196,5.0,12.0,69,0.00,,---,0.00,130.00,VWS V14.00,2013-02-17 13:57:00,
2013-02-17 08:04:00,44.4,34.1,30.12,SSW,212,10.0,12.0,67,0.00,,---,0.00,155.00,VWS V14.00,2013-02-17 14:04:00,
2013-02-17 08:13:00,44.9,34.2,30.12,South,178,7.0,11.0,66,0.00,,---,0.00,181.00,VWS V14.00,2013-02-17 14:13:00,
2013-02-17 08:21:00,45.4,35.1,30.12,South,190,9.0,13.0,67,0.00,,---,0.00,209.00,VWS V14.00,2013-02-17 14:21:00,
2013-02-17 08:29:00,46.3,35.6,30.12,South,186,14.0,14.0,66,0.00,,---,0.00,236.00,VWS V14.00,2013-02-17 14:29:00,
2013-02-17 08:34:00,46.8,35.3,30.12,SSW,195,4.0,14.0,64,0.00,,---,0.00,250.00,VWS V14.00,2013-02-17 14:34:00,
2013-02-17 08:41:00,47.5,35.5,30.12,South,171,6.0,14.0,63,0.00,,---,0.00,276.00,VWS V14.00,2013-02-17 14:41:00,
2013-02-17 08:49:00,48.6,36.6,30.12,SSW,194,6.0,14.0,63,0.00,,---,0.00,301.00,VWS V14.00,2013-02-17 14:49:00,
2013-02-17 08:57:00,49.7,36.4,30.12,SSW,201,6.0,14.0,60,0.00,,---,0.00,329.00,VWS V14.00,2013-02-17 14:57:00,
2013-02-17 09:04:00,50.5,36.3,30.12,South,190,4.0,14.0,58,0.00,,---,0.00,353.00,VWS V14.00,2013-02-17 15:04:00,
2013-02-17 09:13:00,51.7,37.0,30.12,South,187,1.0,10.0,57,0.00,,---,0.00,378.00,VWS V14.00,2013-02-17 15:13:00,
2013-02-17 09:21:00,52.9,36.7,30.12,SW,223,7.0,10.0,54,0.00,,---,0.00,406.00,VWS V14.00,2013-02-17 15:21:00,
2013-02-17 09:29:00,54.0,37.8,30.12,SSW,194,5.0,11.0,54,0.00,,---,0.00,431.00,VWS V14.00,2013-02-17 15:29:00,
2013-02-17 09:37:00,55.0,37.2,30.12,SSW,208,3.0,12.0,51,0.00,,---,0.00,454.00,VWS V14.00,2013-02-17 15:37:00,
2013-02-17 09:45:00,55.9,36.5,30.12,SSW,192,5.0,12.0,48,0.00,,---,0.00,476.00,VWS V14.00,2013-02-17 15:45:00,
2013-02-17 09:53:00,56.7,36.2,30.12,SW,234,10.0,12.0,46,0.00,,---,0.00,499.00,VWS V14.00,2013-02-17 15:53:00,
2013-02-17 10:01:00,57.7,38.2,30.12,South,187,8.0,12.0,48,0.00,,---,0.00,517.00,VWS V14.00,2013-02-17 16:01:00,
2013-02-17 10:10:00,58.5,36.1,30.12,SW,217,9.0,10.0,43,0.00,,---,0.00,538.00,VWS V14.00,2013-02-17 16:10:00,
2013-02-17 10:18:00,59.6,37.1,30.12,SSE,168,9.0,12.0,43,0.00,,---,0.00,563.00,VWS V14.00,2013-02-17 16:18:00,
2013-02-17 10:26:00,60.7,36.3,30.11,SW,233,6.0,12.0,40,0.00,,---,0.00,582.00,VWS V14.00,2013-02-17 16:26:00,
2013-02-17 10:34:00,61.5,35.7,30.11,SSW,206,6.0,16.0,38,0.00,,---,0.00,599.00,VWS V14.00,2013-02-17 16:34:00,
2013-02-17 10:42:00,62.0,36.1,30.11,WSW,244,13.0,13.0,38,0.00,,---,0.00,613.00,VWS V14.00,2013-02-17 16:42:00,
2013-02-17 10:50:00,61.9,34.0,30.11,SW,235,6.0,13.0,35,0.00,,---,0.00,631.00,VWS V14.00,2013-02-17 16:50:00,
2013-02-17 10:58:00,63.3,36.6,30.11,SW,220,11.0,14.0,37,0.00,,---,0.00,645.00,VWS V14.00,2013-02-17 16:58:00,
2013-02-17 11:04:00,63.1,36.4,30.10,SSW,192,5.0,14.0,37,0.00,,---,0.00,657.00,VWS V14.00,2013-02-17 17:04:00,
2013-02-17 11:10:00,63.3,35.2,30.10,SSW,192,5.0,12.0,35,0.00,,---,0.00,666.00,VWS V14.00,2013-02-17 17:10:00,
2013-02-17 11:18:00,63.7,34.1,30.09,SSW,198,11.0,18.0,33,0.00,,---,0.00,679.00,VWS V14.00,2013-02-17 17:18:00,
2013-02-17 11:26:00,65.4,36.3,30.09,SSW,206,8.0,18.0,34,0.00,,---,0.00,689.00,VWS V14.00,2013-02-17 17:26:00,
2013-02-17 11:34:00,65.4,36.3,30.09,South,188,7.0,18.0,34,0.00,,---,0.00,698.00,VWS V14.00,2013-02-17 17:34:00,
2013-02-17 11:42:00,65.4,36.3,30.09,South,179,7.0,15.0,34,0.00,,---,0.00,707.00,VWS V14.00,2013-02-17 17:42:00,
2013-02-17 11:50:00,65.4,37.1,30.08,SW,225,10.0,16.0,35,0.00,,---,0.00,715.00,VWS V14.00,2013-02-17 17:50:00,
2013-02-17 11:59:00,65.9,33.6,30.08,West,261,6.0,17.0,30,0.00,,---,0.00,719.00,VWS V14.00,2013-02-17 17:59:00,
2013-02-17 12:04:00,66.2,33.9,30.08,SSW,211,7.0,17.0,30,0.00,,---,0.00,724.00,VWS V14.00,2013-02-17 18:04:00,
2013-02-17 12:11:00,66.2,34.7,30.08,SW,227,1.0,15.0,31,0.00,,---,0.00,729.00,VWS V14.00,2013-02-17 18:11:00,
2013-02-17 12:19:00,66.1,35.4,30.06,South,180,10.0,15.0,32,0.00,,---,0.00,735.00,VWS V14.00,2013-02-17 18:19:00,
2013-02-17 12:27:00,66.0,34.5,30.06,SW,219,4.0,15.0,31,0.00,,---,0.00,737.00,VWS V14.00,2013-02-17 18:27:00,
2013-02-17 12:34:00,66.9,33.6,30.05,SSW,208,8.0,15.0,29,0.00,,---,0.00,737.00,VWS V14.00,2013-02-17 18:34:00,
2013-02-17 12:43:00,66.4,34.9,30.05,SSW,211,9.0,19.0,31,0.00,,---,0.00,735.00,VWS V14.00,2013-02-17 18:43:00,
2013-02-17 12:51:00,67.0,34.6,30.04,SSW,205,6.0,19.0,30,0.00,,---,0.00,733.00,VWS V14.00,2013-02-17 18:51:00,
2013-02-17 12:59:00,67.0,36.2,30.04,SSW,207,10.0,19.0,32,0.00,,---,0.00,733.00,VWS V14.00,2013-02-17 18:59:00,
2013-02-17 13:04:00,67.3,34.0,30.03,South,171,17.0,20.0,29,0.00,,---,0.00,731.00,VWS V14.00,2013-02-17 19:04:00,
2013-02-17 13:11:00,67.5,35.0,30.03,South,178,12.0,21.0,30,0.00,,---,0.00,726.00,VWS V14.00,2013-02-17 19:11:00,
2013-02-17 13:19:00,66.5,34.1,30.02,SSW,192,13.0,21.0,30,0.00,,---,0.00,722.00,VWS V14.00,2013-02-17 19:19:00,
2013-02-17 13:27:00,67.7,35.2,30.02,SSW,204,11.0,21.0,30,0.00,,---,0.00,715.00,VWS V14.00,2013-02-17 19:27:00,
2013-02-17 13:34:00,67.2,34.8,30.01,SSW,195,14.0,21.0,30,0.00,,---,0.00,708.00,VWS V14.00,2013-02-17 19:34:00,
2013-02-17 13:39:00,67.9,33.6,30.01,South,185,11.0,17.0,28,0.00,,---,0.00,703.00,VWS V14.00,2013-02-17 19:39:00,
2013-02-17 13:47:00,67.6,35.1,30.01,South,178,9.0,22.0,30,0.00,,---,0.00,694.00,VWS V14.00,2013-02-17 19:47:00,
2013-02-17 13:55:00,68.4,33.1,30.00,SSE,162,19.0,22.0,27,0.00,,---,0.00,684.00,VWS V14.00,2013-02-17 19:55:00,
2013-02-17 14:03:00,68.9,35.4,30.00,South,188,8.0,22.0,29,0.00,,---,0.00,671.00,VWS V14.00,2013-02-17 20:03:00,
2013-02-17 14:12:00,68.2,33.9,30.00,South,189,9.0,21.0,28,0.00,,---,0.00,657.00,VWS V14.00,2013-02-17 20:12:00,
2013-02-17 14:20:00,67.7,31.6,29.99,South,184,22.0,24.0,26,0.00,,---,0.00,645.00,VWS V14.00,2013-02-17 20:20:00,
2013-02-17 14:28:00,67.5,33.3,29.99,South,170,17.0,25.0,28,0.00,,---,0.00,631.00,VWS V14.00,2013-02-17 20:28:00,
2013-02-17 14:34:00,67.8,33.5,29.98,South,186,21.0,25.0,28,0.00,,---,0.00,617.00,VWS V14.00,2013-02-17 20:34:00,
2013-02-17 14:40:00,68.0,32.8,29.98,SSW,201,13.0,18.0,27,0.00,,---,0.00,606.00,VWS V14.00,2013-02-17 20:40:00,
2013-02-17 14:48:00,68.5,35.0,29.98,South,174,11.0,19.0,29,0.00,,---,0.00,589.00,VWS V14.00,2013-02-17 20:48:00,
2013-02-17 14:56:00,68.1,33.8,29.98,SSE,166,13.0,19.0,28,0.00,,---,0.00,568.00,VWS V14.00,2013-02-17 20:56:00,
2013-02-17 15:04:00,69.0,32.7,29.97,SW,217,6.0,19.0,26,0.00,,---,0.00,552.00,VWS V14.00,2013-02-17 21:04:00,
2013-02-17 15:12:00,68.5,35.0,29.97,South,179,14.0,16.0,29,0.00,,---,0.00,529.00,VWS V14.00,2013-02-17 21:12:00,
2013-02-17 15:20:00,68.1,33.8,29.97,SSW,196,12.0,20.0,28,0.00,,---,0.00,506.00,VWS V14.00,2013-02-17 21:20:00,
2013-02-17 15:28:00,67.8,31.7,29.97,SSE,150,16.0,23.0,26,0.00,,---,0.00,485.00,VWS V14.00,2013-02-17 21:28:00,
2013-02-17 15:34:00,68.0,32.8,29.96,South,178,12.0,23.0,27,0.00,,---,0.00,469.00,VWS V14.00,2013-02-17 21:34:00,
2013-02-17 15:40:00,68.1,32.0,29.96,SSW,198,16.0,22.0,26,0.00,,---,0.00,452.00,VWS V14.00,2013-02-17 21:40:00,
2013-02-17 15:48:00,68.2,33.0,29.96,South,177,19.0,22.0,27,0.00,,---,0.00,427.00,VWS V14.00,2013-02-17 21:48:00,
2013-02-17 15:56:00,67.9,34.5,29.96,SSE,165,17.0,23.0,29,0.00,,---,0.00,404.00,VWS V14.00,2013-02-17 21:56:00,
2013-02-17 16:04:00,67.9,31.8,29.95,South,191,16.0,23.0,26,0.00,,---,0.00,364.00,VWS V14.00,2013-02-17 22:04:00,
2013-02-17 16:13:00,67.7,33.5,29.95,SE,140,5.0,18.0,28,0.00,,---,0.00,353.00,VWS V14.00,2013-02-17 22:13:00,
2013-02-17 16:21:00,68.1,32.9,29.95,South,186,7.0,25.0,27,0.00,,---,0.00,322.00,VWS V14.00,2013-02-17 22:21:00,
2013-02-17 16:29:00,67.9,33.6,29.95,SSW,194,7.0,25.0,28,0.00,,---,0.00,301.00,VWS V14.00,2013-02-17 22:29:00,
2013-02-17 16:34:00,67.7,33.5,29.94,South,178,13.0,25.0,28,0.00,,---,0.00,281.00,VWS V14.00,2013-02-17 22:34:00,
2013-02-17 16:41:00,67.4,33.2,29.94,SSE,167,16.0,19.0,28,0.00,,---,0.00,262.00,VWS V14.00,2013-02-17 22:41:00,
2013-02-17 16:49:00,67.2,32.1,29.94,South,180,17.0,21.0,27,0.00,,---,0.00,160.00,VWS V14.00,2013-02-17 22:49:00,
2013-02-17 16:57:00,67.0,34.6,29.94,South,178,11.0,21.0,30,0.00,,---,0.00,95.00,VWS V14.00,2013-02-17 22:57:00,
2013-02-17 17:04:00,66.7,33.5,29.94,SSW,202,10.0,21.0,29,0.00,,---,0.00,121.00,VWS V14.00,2013-02-17 23:04:00,
2013-02-17 17:13:00,66.5,35.0,29.94,SSW,195,10.0,18.0,31,0.00,,---,0.00,86.00,VWS V14.00,2013-02-17 23:13:00,
2013-02-17 17:21:00,66.3,34.8,29.94,South,177,12.0,18.0,31,0.00,,---,0.00,49.00,VWS V14.00,2013-02-17 23:21:00,
2013-02-17 17:29:00,66.0,33.7,29.94,South,184,11.0,18.0,30,0.00,,---,0.00,28.00,VWS V14.00,2013-02-17 23:29:00,
2013-02-17 17:37:00,66.1,33.8,29.94,South,173,11.0,15.0,30,0.00,,---,0.00,23.00,VWS V14.00,2013-02-17 23:37:00,
2013-02-17 17:45:00,65.9,34.4,29.94,South,179,12.0,18.0,31,0.00,,---,0.00,18.00,VWS V14.00,2013-02-17 23:45:00,
2013-02-17 17:53:00,65.2,35.4,29.94,South,169,9.0,18.0,33,0.00,,---,0.00,12.00,VWS V14.00,2013-02-17 23:53:00,
2013-02-17 18:02:00,64.9,35.1,29.94,South,181,12.0,18.0,33,0.00,,---,0.00,7.00,VWS V14.00,2013-02-18 00:02:00,
2013-02-17 18:10:00,64.1,34.4,29.94,South,186,10.0,12.0,33,0.00,,---,0.00,0.00,VWS V14.00,2013-02-18 00:10:00,
2013-02-17 18:18:00,63.6,35.5,29.94,South,171,6.0,12.0,35,0.00,,---,0.00,0.00,VWS V14.00,2013-02-18 00:18:00,
2013-02-17 18:26:00,63.3,35.9,29.94,South,176,7.0,12.0,36,0.00,,---,0.00,0.00,VWS V14.00,2013-02-18 00:26:00,
2013-02-17 18:34:00,62.9,36.9,29.94,South,178,5.0,13.0,38,0.00,,---,0.00,0.00,VWS V14.00,2013-02-18 00:34:00,
2013-02-17 18:42:00,62.2,37.6,29.94,SSE,162,6.0,8.0,40,0.00,,---,0.00,0.00,VWS V14.00,2013-02-18 00:42:00,
2013-02-17 18:50:00,61.8,36.6,29.94,South,188,6.0,8.0,39,0.00,,---,0.00,0.00,VWS V14.00,2013-02-18 00:50:00,
2013-02-17 18:58:00,61.6,37.1,29.94,South,177,4.0,8.0,40,0.00,,---,0.00,0.00,VWS V14.00,2013-02-18 00:58:00,
2013-02-17 19:04:00,61.0,36.5,29.94,South,181,5.0,8.0,40,0.00,,---,0.00,0.00,VWS V14.00,2013-02-18 01:04:00,
2013-02-17 19:10:00,60.8,36.3,29.94,South,175,5.0,6.0,40,0.00,,---,0.00,0.00,VWS V14.00,2013-02-18 01:10:00,
2013-02-17 19:18:00,60.9,37.1,29.94,South,173,6.0,8.0,41,0.00,,---,0.00,0.00,VWS V14.00,2013-02-18 01:18:00,
2013-02-17 19:26:00,60.8,36.3,29.94,South,174,4.0,8.0,40,0.00,,---,0.00,0.00,VWS V14.00,2013-02-18 01:26:00,
2013-02-17 19:34:00,60.4,36.6,29.94,South,172,3.0,8.0,41,0.00,,---,0.00,0.00,VWS V14.00,2013-02-18 01:34:00,
2013-02-17 19:42:00,60.0,37.5,29.94,South,176,7.0,7.0,43,0.00,,---,0.00,0.00,VWS V14.00,2013-02-18 01:42:00,
2013-02-17 19:50:00,59.8,36.7,29.94,South,176,4.0,9.0,42,0.00,,---,0.00,0.00,VWS V14.00,2013-02-18 01:50:00,
2013-02-17 19:59:00,59.9,37.4,29.94,South,173,5.0,9.0,43,0.00,,---,0.00,0.00,VWS V14.00,2013-02-18 01:59:00,
2013-02-17 20:04:00,60.1,36.3,29.94,South,170,5.0,11.0,41,0.00,,---,0.00,0.00,VWS V14.00,2013-02-18 02:04:00,
2013-02-17 20:11:00,59.8,37.9,29.94,SSE,166,7.0,7.0,44,0.00,,---,0.00,0.00,VWS V14.00,2013-02-18 02:11:00,
2013-02-17 20:19:00,59.5,38.2,29.94,South,171,4.0,7.0,45,0.00,,---,0.00,0.00,VWS V14.00,2013-02-18 02:19:00,
2013-02-17 20:27:00,59.2,36.7,29.94,South,182,4.0,7.0,43,0.00,,---,0.00,0.00,VWS V14.00,2013-02-18 02:27:00,
2013-02-17 20:35:00,58.7,36.9,29.94,South,184,5.0,7.0,44,0.00,,---,0.00,0.00,VWS V14.00,2013-02-18 02:35:00,
2013-02-17 20:43:00,58.6,37.3,29.94,SSE,167,4.0,7.0,45,0.00,,---,0.00,0.00,VWS V14.00,2013-02-18 02:43:00,
2013-02-17 20:51:00,58.1,38.0,29.94,South,178,9.0,10.0,47,0.00,,---,0.00,0.00,VWS V14.00,2013-02-18 02:51:00,
2013-02-17 20:59:00,58.0,37.9,29.94,SSE,162,7.0,10.0,47,0.00,,---,0.00,0.00,VWS V14.00,2013-02-18 02:59:00,
2013-02-17 21:05:00,58.1,36.9,29.94,South,170,3.0,10.0,45,0.00,,---,0.00,0.00,VWS V14.00,2013-02-18 03:05:00,
2013-02-17 21:11:00,57.9,37.8,29.94,South,170,4.0,7.0,47,0.00,,---,0.00,0.00,VWS V14.00,2013-02-18 03:11:00,
2013-02-17 21:19:00,57.7,38.2,29.94,SSE,167,6.0,8.0,48,0.00,,---,0.00,0.00,VWS V14.00,2013-02-18 03:19:00,
2013-02-17 21:27:00,57.6,39.1,29.94,SSE,168,5.0,9.0,50,0.00,,---,0.00,0.00,VWS V14.00,2013-02-18 03:27:00,
2013-02-17 21:34:00,57.4,38.4,29.94,SSE,161,9.0,10.0,49,0.00,,---,0.00,0.00,VWS V14.00,2013-02-18 03:34:00,
2013-02-17 21:39:00,57.8,38.3,29.94,South,178,8.0,11.0,48,0.00,,---,0.00,0.00,VWS V14.00,2013-02-18 03:39:00,
2013-02-17 21:47:00,58.1,39.6,29.94,South,171,9.0,14.0,50,0.00,,---,0.00,0.00,VWS V14.00,2013-02-18 03:47:00,
2013-02-17 21:55:00,58.0,39.5,29.94,SSE,161,7.0,14.0,50,0.00,,---,0.00,0.00,VWS V14.00,2013-02-18 03:55:00,
2013-02-17 22:03:00,58.3,40.3,29.94,SSE,168,12.0,14.0,51,0.00,,---,0.00,0.00,VWS V14.00,2013-02-18 04:03:00,
2013-02-17 22:11:00,58.2,40.7,29.94,SSE,165,7.0,15.0,52,0.00,,---,0.00,0.00,VWS V14.00,2013-02-18 04:11:00,
2013-02-17 22:20:00,58.4,41.8,29.94,South,180,9.0,15.0,54,0.00,,---,0.00,0.00,VWS V14.00,2013-02-18 04:20:00,
2013-02-17 22:28:00,58.2,41.7,29.94,South,175,10.0,15.0,54,0.00,,---,0.00,0.00,VWS V14.00,2013-02-18 04:28:00,
2013-02-17 22:35:00,58.1,42.0,29.94,South,186,9.0,15.0,55,0.00,,---,0.00,0.00,VWS V14.00,2013-02-18 04:35:00,
2013-02-17 22:40:00,57.9,42.8,29.94,South,178,10.0,17.0,57,0.00,,---,0.00,0.00,VWS V14.00,2013-02-18 04:40:00,
2013-02-17 22:48:00,57.9,43.2,29.94,South,180,14.0,17.0,58,0.00,,---,0.00,0.00,VWS V14.00,2013-02-18 04:48:00,
2013-02-17 22:56:00,57.9,42.8,29.94,South,183,11.0,17.0,57,0.00,,---,0.00,0.00,VWS V14.00,2013-02-18 04:56:00,
2013-02-17 23:00:00,57.8,42.7,29.94,SSE,168,9.0,18.0,57,0.00,,---,0.00,0.00,VWS V14.00,2013-02-18 05:00:00,
2013-02-17 23:05:00,57.7,43.0,29.94,South,173,11.0,18.0,58,0.00,,---,0.00,0.00,VWS V14.00,2013-02-18 05:05:00,
2013-02-17 23:08:00,57.8,43.1,29.94,SSE,163,8.0,20.0,58,0.00,,---,0.00,0.00,VWS V14.00,2013-02-18 05:08:00,
2013-02-17 23:16:00,57.6,43.4,29.94,South,174,10.0,20.0,59,0.00,,---,0.00,0.00,VWS V14.00,2013-02-18 05:16:00,
2013-02-17 23:20:00,57.4,43.2,29.94,South,188,15.0,20.0,59,0.00,,---,0.00,0.00,VWS V14.00,2013-02-18 05:20:00,
2013-02-17 23:28:00,57.3,43.5,29.94,South,186,14.0,20.0,60,0.00,,---,0.00,0.00,VWS V14.00,2013-02-18 05:28:00,
2013-02-17 23:35:00,57.2,43.5,29.94,South,178,10.0,20.0,60,0.00,,---,0.00,0.00,VWS V14.00,2013-02-18 05:35:00,
2013-02-17 23:40:00,57.0,43.7,29.94,South,183,10.0,12.0,61,0.00,,---,0.00,0.00,VWS V14.00,2013-02-18 05:40:00,
2013-02-17 23:48:00,57.1,43.8,29.94,SSE,157,16.0,16.0,61,0.00,,---,0.00,0.00,VWS V14.00,2013-02-18 05:48:00,
2013-02-17 23:56:00,56.9,43.6,29.93,South,175,10.0,16.0,61,0.00,,---,0.00,0.00,VWS V14.00,2013-02-18 05:56:00,